Temp
62 67 68 69 69 70 69 68 66 65 66 65 64 64 64 65 66 68 67 67 67 67 67 66 66 66 66 66 67 66 65 63 66 65 64 65 66 66 67 68 66 64 65
64 65 67 68 66 67 67 67 67 65 65 65 65 65 65 65 65 64 64 66 66 65 66 66 65 65 64 64 65 65 63 63 64 65 64 60 61 64 65 65 64 63 65
66 65 66 66 67 66 67 68 67 65 65 65 63 63 61 60 60 61 62 62 64 63 63 64 64 63 64 62 62 64 63 61 61 61 63 59 59 61 63 62 63 63 65
65 68 66 66 67 67 67 68 67 65 64 63 62 61 62 60 62 60 63 60 63 62 61 61 63 62 62 61 61 62 62 63 60 61 61 61 61 59 57 61 61 62 62
60 66 66 66 67 68 65 66 66 65 64 63 64 63 63 64 63 61 60 60 60 59 60 61 61 60 61 60 60 59 60 61 61 60 59 59 59 60 58 55 59 61 64
61 60 64 65 62 65 65 65 65 63 64 63 64 63 62 60 59 58 58 58 58 59 58 58 59 59 59 58 58 58 58 58 58 59 59 59 59 58 57 55 56 55 58
64 62 63 61 65 61 62 62 63 62 62 62 62 63 63 61 60 58 58 55 56 58 57 58 58 58 57 57 57 56 56 56 57 57 58 58 58 57 55 53 52 50 54
60 60 62 63 64 62 61 62 61 59 58 61 60 62 63 61 63 61 60 58 58 58 58 57 57 57 57 56 56 56 56 55 56 54 55 56 56 55 54 51 48 46 49
56 57 61 64 62 62 62 61 59 59 59 59 62 59 59 61 59 59 59 58 58 57 57 56 55 55 55 55 56 56 54 55 55 53 53 54 55 53 53 51 50 45 41
55 54 58 61 65 63 64 63 63 60 60 58 61 61 59 57 58 57 58 57 57 56 54 54 54 54 54 54 54 53 52 53 52 53 52 52 52 51 51 49 49 47 44
56 57 56 56 61 62 62 59 59 57 60 59 60 55 53 54 55 57 57 55 55 54 54 54 53 53 52 53 53 52 51 51 50 51 50 48 48 49 49 49 47 46 46
54 54 55 54 55 57 59 59 59 58 55 53 52 51 51 52 56 56 55 55 54 54 53 53 52 52 51 52 51 50 50 49 48 48 47 47 48 46 47 47 45 45 46
52 54 53 54 54 55 57 58 58 54 50 50 49 49 50 52 54 53 53 53 53 52 52 52 51 50 49 49 49 49 49 48 47 46 44 45 45 44 45 45 44 44 45
53 53 52 54 54 55 55 55 52 49 48 49 48 48 49 52 52 51 52 52 51 51 51 50 49 48 48 48 47 47 47 46 45 44 44 44 43 43 43 43 43 44 43
52 52 52 52 51 49 49 48 47 47 48 47 47 47 51 51 50 50 49 49 50 49 49 48 47 47 47 47 46 45 44 44 44 44 43 43 43 40 41 42 43 43 41
52 53 52 52 52 51 48 47 46 46 48 49 48 48 48 48 48 48 48 47 47 47 47 46 45 43 45 41 42 44 44 43 42 41 43 44 42 42 41 41 41 41 40
53 52 52 52 53 53 52 50 50 51 50 48 47 47 47 47 47 47 47 46 46 46 45 44 43 41 41 40 41 42 43 42 43 42 42 42 43 42 42 42 41 41 41
53 53 53 53 52 52 51 51 49 49 48 47 47 47 47 46 46 46 45 45 45 44 43 40 40 40 41 38 40 41 42 42 42 42 42 41 41 42 41 41 41 42 43
54 55 55 53 51 50 50 49 48 48 47 46 46 46 47 45 45 44 44 43 41 39 39 40 39 38 40 37 38 39 41 41 41 42 42 41 41 41 41 40 39 40 42
52 52 53 52 50 50 50 49 47 45 44 45 46 47 46 45 44 41 38 39 40 39 39 38 39 37 38 38 37 39 41 40 40 41 42 41 40 40 40 40 39 37 38
48 50 50 48 50 49 49 47 45 44 46 46 45 43 43 41 40 39 39 38 38 37 37 37 38 37 38 39 37 38 39 39 39 39 40 41 40 40 40 40 38 35 38
45 46 46 46 47 47 47 44 44 44 42 42 41 41 41 40 38 38 37 38 37 37 36 36 37 39 39 37 37 37 38 39 38 38 39 40 40 39 40 40 40 39 39
44 44 45 44 43 44 46 43 40 41 41 40 39 39 39 38 38 37 37 36 36 36 36 36 36 37 38 39 37 37 37 38 37 39 39 38 38 38 38 39 38 37 37
44 44 44 42 41 45 45 44 41 42 41 39 37 37 36 36 37 38 38 37 36 35 35 35 35 35 37 37 38 38 38 38 38 38 39 38 37 37 36 37 37 36 35
42 43 42 42 41 43 44 41 41 42 39 38 36 36 37 36 35 37 37 37 37 36 35 35 35 34 34 36 37 37 36 37 37 37 37 35 34 34 34 35 35 34 34
40 40 41 40 40 40 39 39 40 40 38 35 36 36 35 35 36 35 34 34 34 35 35 35 35 37 36 36 37 37 36 36 37 34 32 32 32 31 31 30 30 31 30
MSLP
1014.75 1014.76 1015.07 1015.51 1015.92 1016.35 1016.66 1017.31 1018.06 1018.53 1019.03 1019.54 1019.91 1020.34 1020.55 1021.03 1021.21 1021.31 1021.52 1021.62 1021.83 1021.94 1022.11 1022.32 1022.69 1022.71 1022.71 1022.90 1023.00 1023.12 1023.09 1023.34 1023.48 1023.24 1023.38 1023.48 1023.58 1023.64 1023.73 1023.80 1024.11 1024.46 1024.58
1014.34 1014.31 1014.60 1015.09 1015.36 1015.80 1016.26 1016.90 1017.48 1018.08 1018.65 1019.16 1019.61 1020.00 1020.42 1021.01 1021.29 1021.78 1021.91 1021.82 1022.15 1022.20 1022.23 1022.30 1022.55 1022.83 1023.00 1023.13 1023.24 1023.27 1023.29 1023.51 1023.60 1022.96 1022.91 1023.00 1023.53 1023.69 1023.90 1023.97 1024.19 1024.52 1024.63
1013.88 1013.81 1014.25 1014.24 1014.76 1015.19 1015.70 1016.15 1016.71 1017.61 1018.26 1018.87 1019.60 1020.13 1020.71 1021.33 1021.71 1021.84 1022.05 1022.18 1022.26 1022.25 1022.58 1022.71 1022.72 1022.97 1023.00 1023.13 1023.33 1023.52 1023.45 1023.39 1023.84 1023.70 1023.13 1022.93 1022.64 1023.34 1023.86 1024.03 1024.14 1024.42 1024.39
1013.17 1012.91 1013.63 1013.82 1013.83 1014.18 1014.91 1015.69 1016.47 1017.01 1017.73 1018.48 1019.11 1019.43 1019.79 1020.42 1020.78 1021.45 1021.86 1022.23 1022.58 1022.17 1022.62 1023.09 1022.98 1023.06 1023.23 1023.33 1023.48 1023.62 1023.81 1023.78 1023.70 1023.92 1023.93 1023.76 1023.69 1023.33 1023.25 1023.91 1024.14 1024.33 1024.29
1011.76 1012.17 1012.51 1013.22 1012.70 1013.53 1014.11 1015.01 1016.00 1016.79 1017.28 1017.84 1018.44 1019.00 1019.57 1020.17 1020.74 1021.38 1022.06 1022.38 1022.72 1022.62 1022.73 1023.11 1023.04 1023.31 1023.57 1023.59 1023.70 1023.94 1024.00 1024.32 1024.17 1024.06 1024.20 1024.20 1024.21 1024.23 1023.94 1023.49 1023.54 1024.03 1024.05
1011.28 1012.01 1011.74 1012.29 1013.06 1013.80 1014.13 1014.46 1015.16 1016.12 1016.74 1017.07 1017.79 1018.40 1019.04 1019.86 1020.44 1021.26 1021.78 1022.46 1022.48 1022.73 1023.19 1023.29 1023.26 1023.44 1023.69 1023.99 1024.07 1024.21 1024.28 1024.58 1024.75 1024.68 1024.58 1024.40 1024.27 1024.31 1024.41 1024.22 1024.07 1024.19 1024.21
1011.21 1011.39 1011.77 1011.75 1011.93 1012.65 1013.47 1013.88 1014.54 1015.29 1015.87 1016.65 1017.09 1017.71 1018.63 1019.27 1019.93 1020.73 1021.33 1021.99 1022.24 1022.75 1023.11 1023.10 1023.48 1023.69 1023.91 1024.17 1024.45 1024.57 1024.61 1024.82 1024.97 1025.06 1025.06 1025.19 1025.08 1025.24 1025.24 1025.18 1024.84 1024.65 1024.64
1011.17 1011.19 1010.54 1010.81 1010.85 1011.93 1012.54 1013.19 1013.64 1014.55 1015.26 1015.69 1016.46 1016.83 1017.61 1019.03 1019.71 1020.41 1020.99 1021.51 1022.05 1022.36 1022.95 1023.06 1023.54 1023.91 1024.07 1024.44 1024.75 1024.82 1024.97 1025.17 1025.38 1025.48 1025.61 1025.66 1025.65 1025.71 1025.76 1025.71 1025.60 1025.03 1024.60
1011.46 1011.70 1011.30 1010.82 1010.75 1011.36 1012.22 1012.65 1012.37 1013.47 1014.08 1015.76 1016.27 1016.63 1017.46 1018.32 1019.40 1020.38 1021.09 1021.56 1021.98 1022.49 1023.04 1023.35 1023.77 1024.03 1024.32 1024.64 1024.83 1024.99 1025.23 1025.31 1025.67 1025.93 1026.06 1025.92 1025.91 1026.08 1026.17 1026.18 1026.15 1025.90 1025.02
1010.67 1010.70 1010.78 1011.04 1010.81 1011.24 1011.69 1012.20 1012.37 1013.44 1014.47 1015.01 1015.94 1016.46 1017.04 1018.39 1019.35 1020.16 1020.75 1021.60 1022.07 1022.91 1023.30 1023.61 1023.90 1024.17 1024.55 1024.93 1025.18 1025.48 1025.72 1025.71 1025.97 1026.16 1026.17 1026.17 1026.16 1026.24 1026.34 1026.37 1026.28 1026.15 1025.81
1010.54 1010.55 1010.86 1010.84 1010.90 1011.22 1011.66 1012.28 1012.57 1013.29 1014.63 1015.05 1015.73 1016.61 1017.27 1018.45 1019.45 1020.07 1020.66 1021.48 1022.42 1023.10 1023.39 1023.76 1024.03 1024.35 1024.83 1025.20 1025.41 1025.72 1025.89 1025.98 1026.12 1026.26 1026.30 1026.29 1026.37 1026.24 1026.27 1026.25 1026.19 1025.99 1025.74
1010.88 1010.57 1010.70 1011.35 1011.53 1011.67 1011.93 1012.20 1012.62 1013.49 1014.24 1015.43 1015.94 1016.86 1017.74 1018.60 1019.57 1019.96 1020.66 1021.51 1022.46 1023.18 1023.64 1024.05 1024.29 1024.65 1024.94 1025.29 1025.69 1025.94 1026.08 1026.04 1026.02 1026.22 1026.33 1026.29 1026.43 1026.43 1026.30 1026.17 1026.04 1025.87 1025.66
1010.97 1011.27 1011.26 1011.09 1011.20 1011.45 1011.72 1012.06 1012.68 1013.96 1014.68 1015.23 1016.20 1017.14 1018.13 1019.02 1019.51 1020.21 1021.06 1021.79 1022.48 1023.26 1023.91 1024.28 1024.65 1024.97 1025.20 1025.53 1025.78 1026.04 1026.12 1026.10 1026.19 1026.35 1026.45 1026.48 1026.48 1026.34 1026.17 1026.10 1025.81 1025.52 1025.22
1010.72 1010.96 1011.24 1011.21 1011.31 1011.67 1012.02 1012.78 1013.77 1014.17 1014.76 1015.77 1016.63 1017.50 1018.36 1018.86 1019.69 1020.69 1021.51 1022.12 1022.83 1023.42 1024.00 1024.50 1025.03 1025.21 1025.54 1025.80 1025.90 1026.13 1026.16 1026.17 1026.26 1026.39 1026.49 1026.48 1026.43 1026.31 1026.18 1025.95 1025.65 1025.27 1024.95
1010.19 1010.66 1011.26 1011.50 1011.84 1012.19 1012.78 1013.50 1014.00 1014.59 1015.25 1016.15 1016.97 1017.78 1018.58 1019.37 1020.19 1021.11 1021.89 1022.57 1023.12 1023.71 1024.23 1024.78 1025.27 1025.62 1025.71 1025.82 1025.93 1026.10 1026.14 1026.20 1026.20 1026.25 1026.34 1026.28 1026.22 1026.45 1026.21 1025.82 1025.28 1024.88 1024.52
1009.88 1010.36 1011.04 1011.70 1011.98 1012.34 1012.85 1013.55 1014.26 1014.85 1015.57 1016.36 1017.20 1018.10 1019.01 1019.83 1020.60 1021.37 1022.13 1022.82 1023.46 1024.05 1024.50 1024.94 1025.42 1025.77 1025.80 1026.16 1026.19 1026.16 1025.99 1026.07 1026.13 1026.01 1025.91 1025.76 1025.88 1025.69 1025.61 1025.43 1025.13 1024.96 1024.43
1009.75 1010.26 1010.69 1011.27 1011.94 1012.50 1012.93 1013.45 1014.31 1015.20 1015.95 1016.76 1017.60 1018.44 1019.20 1019.99 1020.80 1021.61 1022.36 1023.07 1023.71 1024.21 1024.67 1025.18 1025.52 1025.67 1025.91 1026.24 1026.18 1026.10 1025.87 1025.86 1025.78 1025.77 1025.63 1025.40 1025.23 1025.26 1024.92 1024.69 1024.48 1024.29 1023.94
1009.42 1009.85 1010.40 1011.12 1012.00 1012.85 1013.55 1014.14 1014.84 1015.50 1016.26 1017.02 1017.75 1018.59 1019.37 1020.23 1021.14 1021.87 1022.57 1023.28 1023.83 1024.35 1024.81 1025.19 1025.49 1025.76 1025.96 1026.21 1026.12 1025.99 1025.74 1025.68 1025.61 1025.47 1025.29 1025.04 1024.81 1024.65 1024.57 1024.25 1023.68 1023.14 1022.68
1009.33 1009.49 1010.03 1010.87 1011.92 1012.67 1013.49 1014.23 1014.91 1015.57 1016.30 1017.10 1017.90 1018.75 1019.58 1020.37 1021.21 1022.03 1022.76 1023.52 1024.09 1024.58 1024.95 1025.30 1025.56 1025.71 1025.79 1026.07 1026.02 1025.94 1025.53 1025.25 1025.08 1024.93 1024.80 1024.70 1024.47 1024.19 1024.06 1023.63 1022.94 1022.27 1021.77
1009.53 1009.84 1010.39 1011.05 1011.77 1012.56 1013.38 1014.02 1014.75 1015.64 1016.43 1017.22 1018.06 1018.94 1019.73 1020.47 1021.35 1022.28 1023.14 1023.73 1024.22 1024.65 1025.03 1025.25 1025.49 1025.69 1025.72 1025.90 1025.92 1025.67 1025.26 1024.89 1024.70 1024.47 1024.25 1024.21 1024.19 1024.03 1023.68 1023.14 1022.49 1021.83 1021.38
1010.02 1010.22 1010.62 1011.15 1011.71 1012.70 1013.41 1014.10 1014.94 1015.64 1016.53 1017.47 1018.46 1019.40 1020.27 1021.00 1021.78 1022.50 1023.35 1023.92 1024.34 1024.73 1025.03 1025.22 1025.37 1025.49 1025.67 1025.54 1025.66 1025.48 1025.22 1024.82 1024.45 1024.05 1023.66 1023.50 1023.50 1023.43 1023.03 1022.52 1022.15 1021.60 1021.19
1010.27 1010.62 1010.94 1011.31 1012.12 1012.83 1013.29 1014.07 1015.01 1016.02 1017.08 1017.90 1018.81 1019.76 1020.65 1021.47 1022.12 1022.81 1023.52 1023.97 1024.35 1024.61 1024.84 1025.01 1025.06 1025.12 1025.17 1025.32 1025.17 1025.13 1024.96 1024.65 1024.25 1023.80 1023.47 1023.21 1023.04 1022.80 1022.34 1021.89 1021.55 1021.28 1020.85
1010.39 1010.70 1010.98 1011.55 1012.33 1012.88 1013.35 1014.08 1015.34 1016.27 1017.18 1018.20 1019.25 1020.15 1020.99 1021.74 1022.29 1022.93 1023.50 1024.00 1024.38 1024.47 1024.60 1024.74 1024.74 1024.71 1024.79 1024.72 1024.84 1024.71 1024.53 1024.34 1024.05 1023.65 1023.28 1023.01 1022.57 1022.23 1021.82 1021.46 1021.28 1020.91 1020.48
1010.02 1010.62 1011.10 1011.61 1012.26 1012.91 1013.61 1014.32 1015.40 1016.38 1017.30 1018.44 1019.52 1020.43 1021.18 1021.88 1022.70 1023.14 1023.51 1023.71 1024.03 1024.28 1024.44 1024.49 1024.43 1024.40 1024.33 1024.28 1024.21 1024.14 1023.97 1023.76 1023.52 1023.12 1022.64 1022.42 1022.11 1021.90 1021.65 1021.09 1020.78 1020.60 1020.40
1009.68 1010.21 1010.72 1011.28 1012.03 1012.89 1013.71 1014.70 1015.51 1016.38 1017.60 1018.73 1019.73 1020.61 1021.24 1022.14 1022.69 1023.11 1023.34 1023.57 1023.95 1024.13 1024.13 1024.14 1024.17 1024.09 1023.96 1023.88 1023.96 1023.70 1023.47 1023.31 1023.14 1022.78 1022.22 1021.86 1021.78 1021.32 1021.03 1020.77 1020.58 1020.38 1020.14
1009.33 1009.87 1010.48 1011.22 1011.99 1012.82 1013.82 1014.81 1015.66 1016.56 1017.59 1018.86 1019.89 1020.69 1021.55 1022.13 1022.57 1022.93 1023.50 1023.90 1023.92 1023.95 1024.00 1024.01 1024.01 1023.87 1023.79 1023.71 1023.56 1023.31 1023.17 1022.97 1022.63 1022.29 1021.89 1021.70 1021.53 1021.31 1021.11 1020.91 1020.62 1020.42 1020.12
Wind_Speed
8 12 13 14 13 14 14 14 14 13 10 8 8 6 6 5 4 4 7 7 7 7 6 5 5 4 4 4 4 4 5 4 2 4 3 3 3 3 1 3 4 5 5
10 14 15 15 15 15 15 17 16 15 12 9 7 4 7 4 4 4 5 6 7 7 6 7 6 5 5 5 4 3 3 3 2 1 2 4 4 3 2 3 4 4 2
16 12 16 18 17 17 18 17 17 16 13 11 8 6 6 5 5 6 5 5 7 7 6 6 6 6 4 4 4 2 2 3 2 4 3 2 1 2 3 4 4 4 1
21 12 15 18 19 19 16 17 16 17 14 14 11 11 9 7 6 7 6 6 7 8 7 6 6 6 4 5 4 3 2 1 3 2 3 4 4 2 3 4 4 3 3
11 12 13 19 18 17 16 16 17 16 16 15 13 10 9 6 6 6 9 7 5 6 7 6 7 6 4 5 5 4 4 2 2 1 1 2 2 1 2 4 3 3 2
15 16 15 14 10 11 15 16 19 17 16 17 16 14 13 10 9 9 8 7 5 6 7 7 6 6 6 5 5 5 5 4 3 2 2 1 1 1 3 4 6 7 6
16 23 22 14 17 17 16 15 18 18 17 17 16 16 13 12 12 12 9 9 7 7 7 8 7 5 6 6 5 5 5 4 3 2 2 2 2 2 3 4 6 6 7
9 11 14 15 13 17 20 21 21 17 17 17 16 14 15 8 8 11 9 7 8 8 9 7 7 7 7 6 5 4 4 4 3 3 2 1 1 1 2 4 5 8 8
4 8 13 16 15 18 20 19 20 17 19 16 15 12 11 12 10 11 10 8 8 7 8 9 8 7 7 6 5 4 4 3 2 2 1 1 1 2 3 3 4 5 7
7 5 4 11 14 15 15 15 16 14 15 15 14 13 14 9 9 10 11 10 10 10 10 9 9 8 7 6 5 4 3 3 1 0 2 2 2 3 3 4 5 6 8
8 5 3 4 8 10 11 13 12 15 15 14 14 13 11 11 10 11 11 11 11 10 10 9 9 8 7 5 4 4 3 1 0 1 3 3 4 4 4 4 5 6 7
7 7 5 5 7 9 12 13 14 15 14 11 12 11 11 11 13 13 13 13 12 10 10 9 9 8 6 5 4 3 1 1 2 2 4 4 3 6 6 5 8 7 8
4 5 5 5 6 9 10 11 13 14 12 13 13 12 12 12 13 13 13 12 12 11 9 8 8 7 5 5 4 2 2 1 2 3 4 5 5 6 6 7 7 7 7
7 6 5 6 7 9 10 12 13 12 12 12 12 12 12 14 13 13 13 12 11 11 9 8 7 5 5 4 2 1 2 2 3 3 5 6 6 7 8 8 9 8 9
9 8 7 6 8 10 11 10 10 11 12 12 12 12 14 14 14 13 12 11 10 9 8 8 6 5 4 2 0 2 3 4 4 5 6 7 7 10 11 8 10 10 9
11 10 9 8 9 11 11 10 11 11 12 13 15 14 15 14 14 13 12 11 10 9 8 6 5 4 2 2 2 4 4 4 6 7 7 8 9 11 12 14 16 15 12
10 12 12 12 10 11 12 13 14 13 14 14 15 15 15 14 13 13 12 10 9 8 7 6 4 3 2 1 4 5 5 6 7 8 9 9 7 10 11 13 16 17 19
10 12 12 12 11 10 11 12 13 14 14 15 15 14 14 14 13 12 11 9 8 7 5 4 3 2 1 3 5 6 7 6 9 9 10 10 11 11 12 13 14 15 14
8 10 12 13 13 14 14 15 15 14 15 15 15 15 14 14 13 11 10 8 7 5 4 4 3 2 2 2 6 7 7 7 9 9 10 10 12 14 16 14 14 16 14
5 8 10 11 13 13 14 15 15 15 13 13 15 14 14 13 12 10 9 6 5 5 4 3 2 2 4 4 6 7 6 8 7 9 10 12 12 17 18 14 14 14 14
6 8 12 12 13 14 14 14 14 14 13 14 13 12 11 11 10 9 7 6 6 5 4 3 3 4 4 4 6 8 7 7 8 8 8 8 13 17 20 20 13 10 11
7 10 11 11 12 14 14 14 15 13 13 13 12 12 11 8 8 9 7 6 5 5 4 3 3 3 4 5 6 8 10 11 9 10 8 10 16 19 21 17 18 21 20
8 9 11 12 12 13 13 15 14 15 14 14 13 11 10 9 8 8 7 5 5 3 2 2 3 3 3 4 6 10 10 10 9 9 13 21 20 19 15 16 19 20 10
10 11 13 14 14 14 13 13 16 15 15 14 12 10 9 9 7 5 5 4 4 3 3 3 3 3 4 4 5 5 6 9 9 12 11 13 15 14 13 13 11 8 9
10 12 14 14 15 15 14 15 15 15 13 12 11 9 7 7 7 5 4 4 3 3 2 2 3 4 5 5 10 12 8 8 10 15 10 7 7 9 10 9 9 8 8
11 11 12 13 14 14 15 14 14 14 14 11 8 7 7 6 5 5 4 5 3 4 5 6 6 6 11 13 14 15 13 15 18 10 8 9 9 10 10 9 9 9 11
Wind_Direction
214 209 204 198 190 190 181 178 175 171 166 168 163 165 170 167 164 158 154 152 146 143 140 130 131 129 125 133 131 115 112 98 118 150 147 153 162 145 157 162 134 110 74
208 205 201 197 191 191 188 184 184 174 177 172 173 167 158 175 156 150 158 149 154 148 146 144 138 135 131 119 148 182 133 100 42 222 205 175 165 168 140 161 157 136 80
252 215 211 200 193 195 197 191 183 180 177 175 161 147 131 135 161 167 156 159 164 146 144 141 141 131 131 119 109 120 199 150 86 46 319 195 235 180 162 170 178 181 339
244 222 216 209 201 201 192 193 189 180 177 174 179 180 182 174 186 169 164 158 172 140 136 145 139 129 130 127 112 100 93 222 145 117 51 46 1 287 206 181 193 219 297
236 256 234 228 204 195 188 188 188 188 178 178 183 182 185 185 158 157 161 162 157 133 138 152 137 131 129 122 120 114 96 67 101 73 134 78 60 39 288 287 221 256 288
197 237 230 205 200 200 193 187 188 189 185 180 183 184 184 171 159 166 166 173 154 144 153 150 137 136 131 127 114 107 100 93 91 87 84 23 319 293 288 286 298 308 305
206 210 215 192 203 193 195 186 183 189 184 186 182 181 186 175 175 168 173 166 157 169 164 151 148 140 132 123 123 117 116 113 115 97 79 45 30 350 317 299 292 288 305
200 220 220 214 201 193 190 189 185 184 188 187 180 174 167 173 182 180 176 169 173 165 159 147 143 138 129 127 128 121 110 113 100 86 58 49 46 318 307 294 302 296 291
243 212 227 220 207 204 206 205 181 188 174 186 178 161 154 166 169 172 169 165 154 148 153 144 141 135 131 135 136 127 117 105 85 80 76 311 326 316 307 289 284 289 292
304 304 259 226 218 216 210 200 191 181 184 161 171 160 152 149 154 156 158 156 144 152 147 142 138 132 126 128 124 117 107 129 116 24 322 324 323 299 287 275 273 269 276
305 302 264 258 229 210 198 188 174 162 175 166 157 144 130 139 151 155 146 143 145 151 145 142 136 130 128 127 130 130 134 151 261 316 314 306 306 293 285 277 273 272 274
297 309 293 187 191 194 182 177 167 169 157 149 134 127 130 135 152 143 138 144 143 141 138 138 132 129 127 123 134 143 161 247 279 296 293 296 297 289 290 286 283 281 281
237 254 227 221 185 171 173 168 158 150 135 125 130 129 136 145 141 134 138 139 136 134 134 134 131 129 125 138 143 184 228 269 298 299 294 296 294 291 293 286 282 281 280
216 210 227 184 168 166 159 154 150 134 127 129 129 135 139 140 136 135 136 135 136 134 132 126 125 124 134 149 153 231 262 270 276 273 279 286 287 289 291 285 284 283 285
221 203 205 185 160 151 145 135 125 128 130 131 134 137 138 134 133 133 132 131 131 130 129 130 129 138 149 137 172 239 277 275 280 278 280 277 289 285 279 286 287 291 287
233 210 193 191 176 158 149 138 136 137 140 142 139 138 137 136 135 134 134 132 130 132 135 137 137 140 136 62 324 300 282 278 275 283 286 284 274 268 275 276 280 279 283
228 211 202 191 184 175 162 157 153 149 149 143 141 142 141 138 137 136 136 136 141 142 141 138 143 125 114 331 314 301 286 277 278 283 286 287 288 285 287 287 283 274 270
242 220 199 186 179 169 167 151 151 152 149 146 144 143 141 137 138 140 140 142 145 145 146 133 125 153 221 316 313 305 287 278 276 282 287 287 290 289 291 290 286 283 279
271 225 196 181 169 169 162 160 158 154 152 150 148 148 146 143 143 144 146 139 140 135 139 157 170 237 277 310 313 304 288 282 286 289 287 286 288 289 291 286 285 289 286
226 199 186 174 172 168 166 161 157 156 154 151 152 149 148 148 147 139 138 132 141 149 154 164 194 248 277 287 300 299 292 291 292 292 289 283 285 298 301 296 295 290 295
218 190 175 178 174 164 165 163 159 162 150 146 143 141 140 137 135 128 138 145 146 144 160 194 219 238 255 290 299 300 298 295 297 294 297 298 302 301 300 296 297 289 300
195 187 180 174 166 170 166 160 162 144 142 138 133 132 131 130 132 136 137 146 154 169 182 214 244 240 266 256 277 292 296 303 298 295 299 298 298 297 303 302 305 309 308
201 188 183 167 168 171 168 158 145 144 138 133 135 135 133 134 132 144 152 157 173 183 185 237 262 267 269 280 282 300 304 302 301 299 299 296 297 297 297 302 306 306 300
192 186 177 173 169 171 167 150 149 144 138 138 139 137 138 128 143 151 167 170 170 187 215 234 265 290 293 304 310 311 306 300 299 301 298 293 297 300 292 299 304 301 298
188 185 185 177 170 165 159 151 146 142 137 136 136 141 133 152 155 169 170 176 182 218 217 258 282 299 300 305 304 297 294 293 304 308 297 302 292 302 307 305 302 299 296
180 179 177 167 160 155 147 145 143 141 135 131 137 138 150 160 167 166 167 200 225 222 256 280 292 300 294 297 296 294 304 304 305 302 299 301 309 307 308 306 306 305 299